Location: Newark
(53.3333°N, 83.7500°E)
Time: 17:23:23
(UTC+00:00)

Transit 2A Rocket - Visible Passes

Search period start: 20 November 2019 00:00
Search period end: 30 November 2019 00:00
Orbit: 594 x 909 km, 66.7° (Epoch: 20 November)

Date Brightness Start Highest point End Pass type
(mag) Time Alt. Az. Time Alt. Az. Time Alt. Az.
20 Nov 4.9 00:34:07 16° NW 00:37:17 48° WSW 00:41:37 10° SSE visible
20 Nov 6.7 22:13:07 23° ENE 22:13:07 23° ENE 22:15:34 10° E visible
20 Nov 4.4 23:53:02 35° NW 23:54:50 78° SW 23:59:19 10° SSE visible
21 Nov 7.7 21:32:04 11° ENE 21:32:04 11° ENE 21:32:19 10° ENE visible
21 Nov 4.7 23:12:00 65° NNE 23:12:17 67° NE 23:16:45 10° SE visible
22 Nov 5.9 00:51:56 14° WNW 00:54:26 22° WSW 00:57:53 10° SSW visible
22 Nov 6.1 22:31:02 33° E 22:31:02 33° E 22:33:56 10° ESE visible
23 Nov 5.2 00:10:58 30° W 00:12:07 35° WSW 00:16:13 10° S visible
23 Nov 7.4 21:50:07 14° E 21:50:07 14° E 21:50:55 10° E visible
23 Nov 4.7 23:30:03 55° SW 23:30:03 55° SW 23:34:09 10° SSE visible
24 Nov 5.9 22:49:13 33° SE 22:49:13 33° SE 22:51:45 10° SE visible
25 Nov 6.3 00:29:10 16° WSW 00:29:11 16° WSW 00:31:53 10° SSW visible
25 Nov 7.3 22:08:27 14° ESE 22:08:27 14° ESE 22:09:05 10° SE visible
25 Nov 6.1 23:48:24 21° SW 23:48:24 21° SW 23:50:39 10° S visible
26 Nov 6.7 23:07:43 17° S 23:07:43 17° S 23:08:50 10° S visible
